EFW22D EGKK-LEZL

Flight info

Callsign EFW22D
Flight time N/A
Altitude 35000
Route IMVUR1Z IMVUR N63 SAM M195 MARUK N621 LELNA DCT NOVAN DCT DELOG DCT VADOX DCT SNR DCT TITAN DCT RATAS DCT NEA DCT NONTU DCT ORBIS DCT DISKO DCT TLD DCT DOPEN DCT MONTO DCT
Aircraft A321/M-SDE3FGIJ1KRWXY/SB1

Departure

Time N/A
Airport London Gatwick Airport (EGKK)

Arrival

Time 2026-04-26 21:09
Airport Seville Airport (LEZL)
Time Latitude Longitude Altitude Speed Heading
2026-04-26 19:34 47.72909 -3.12790 35033 ft 453 kts 196°
2026-04-26 19:34 47.69878 -3.14059 35033 ft 453 kts 196°
2026-04-26 19:35 47.63815 -3.16592 35033 ft 453 kts 196°
2026-04-26 19:35 47.57747 -3.19111 35032 ft 452 kts 196°
2026-04-26 19:36 47.53734 -3.20777 35032 ft 452 kts 196°
2026-04-26 19:36 47.45656 -3.24119 35032 ft 452 kts 196°
2026-04-26 19:37 47.39594 -3.26618 35032 ft 452 kts 196°
2026-04-26 19:37 47.33528 -3.29117 35031 ft 452 kts 196°
2026-04-26 19:38 47.27462 -3.31605 35031 ft 452 kts 195°
2026-04-26 19:38 47.21396 -3.34084 35031 ft 452 kts 195°
2026-04-26 19:39 47.15337 -3.36564 35031 ft 452 kts 196°
2026-04-26 19:39 47.09272 -3.39044 35032 ft 452 kts 195°
2026-04-26 19:40 47.03204 -3.41505 35031 ft 452 kts 195°
2026-04-26 19:40 46.97173 -3.43942 35031 ft 452 kts 195°
2026-04-26 19:41 46.91108 -3.46389 35031 ft 452 kts 195°
2026-04-26 19:41 46.87046 -3.48030 35031 ft 452 kts 195°
2026-04-26 19:42 46.78969 -3.51285 35032 ft 452 kts 195°
2026-04-26 19:42 46.72905 -3.53725 35031 ft 452 kts 195°
2026-04-26 19:43 46.66837 -3.56157 35031 ft 452 kts 195°
2026-04-26 19:43 46.60771 -3.58578 35031 ft 452 kts 195°
2026-04-26 19:44 46.54704 -3.60988 35031 ft 452 kts 195°
2026-04-26 19:44 46.48634 -3.63401 35031 ft 452 kts 195°
2026-04-26 19:45 46.42609 -3.65796 35031 ft 452 kts 195°
2026-04-26 19:45 46.36541 -3.68211 35030 ft 452 kts 195°
2026-04-26 19:46 46.30417 -3.70202 35031 ft 452 kts 186°
2026-04-26 19:46 46.25214 -3.70958 35030 ft 452 kts 186°
2026-04-26 19:47 46.20010 -3.71728 35030 ft 452 kts 186°
2026-04-26 19:47 46.12698 -3.72829 35030 ft 452 kts 186°
2026-04-26 19:48 46.06433 -3.73765 35030 ft 452 kts 186°
2026-04-26 19:48 46.00173 -3.74685 35030 ft 452 kts 186°
2026-04-26 19:49 45.93914 -3.75609 35030 ft 452 kts 186°
2026-04-26 19:49 45.87645 -3.76545 35030 ft 452 kts 186°
2026-04-26 19:50 45.81390 -3.77473 35030 ft 452 kts 186°
2026-04-26 19:50 45.75127 -3.78385 35030 ft 452 kts 186°
2026-04-26 19:51 45.68872 -3.79293 35030 ft 452 kts 186°
2026-04-26 19:51 45.62617 -3.80219 35030 ft 452 kts 186°
2026-04-26 19:52 45.56398 -3.81135 35030 ft 452 kts 186°
2026-04-26 19:52 45.50141 -3.82046 35030 ft 452 kts 186°
2026-04-26 19:53 45.43885 -3.82954 35029 ft 452 kts 186°
2026-04-26 19:53 45.37626 -3.83861 35029 ft 452 kts 186°
2026-04-26 19:54 45.31370 -3.84757 35029 ft 452 kts 186°
2026-04-26 19:54 45.25116 -3.85649 35028 ft 452 kts 186°
2026-04-26 19:55 45.18853 -3.86555 35028 ft 452 kts 186°
2026-04-26 19:55 45.12596 -3.87473 35029 ft 452 kts 186°
2026-04-26 19:56 45.06369 -3.88376 35030 ft 452 kts 186°
2026-04-26 19:56 45.00108 -3.89253 35031 ft 452 kts 186°
2026-04-26 19:57 44.93851 -3.90137 35030 ft 452 kts 186°
2026-04-26 19:57 44.87592 -3.91033 35030 ft 452 kts 186°
2026-04-26 19:58 44.81331 -3.91924 35030 ft 452 kts 186°
2026-04-26 19:58 44.75113 -3.92807 35029 ft 452 kts 186°
2026-04-26 19:59 44.68819 -3.93710 35029 ft 451 kts 186°
2026-04-26 19:59 44.62570 -3.94596 35028 ft 451 kts 186°
2026-04-26 20:00 44.56359 -3.95464 35028 ft 451 kts 186°
2026-04-26 20:00 44.50103 -3.96342 35028 ft 451 kts 186°
2026-04-26 20:01 44.43852 -3.97225 35029 ft 451 kts 186°
2026-04-26 20:01 44.37599 -3.98106 35029 ft 452 kts 186°
2026-04-26 20:02 44.31335 -3.98623 35029 ft 452 kts 176°
2026-04-26 20:02 44.26121 -3.98091 35029 ft 452 kts 176°
2026-04-26 20:03 44.18826 -3.97367 35030 ft 452 kts 176°
2026-04-26 20:03 44.12550 -3.96758 35030 ft 452 kts 176°
2026-04-26 20:04 44.06268 -3.96154 35030 ft 452 kts 176°
2026-04-26 20:04 43.99997 -3.95545 35030 ft 452 kts 176°
2026-04-26 20:05 43.93726 -3.94935 35030 ft 452 kts 176°
2026-04-26 20:05 43.87451 -3.94324 35030 ft 452 kts 176°
2026-04-26 20:06 43.81176 -3.93721 35030 ft 452 kts 176°
2026-04-26 20:06 43.74899 -3.93120 35031 ft 452 kts 176°
2026-04-26 20:07 43.68614 -3.92516 35031 ft 452 kts 176°
2026-04-26 20:07 43.62334 -3.91912 35032 ft 452 kts 176°
2026-04-26 20:08 43.56051 -3.91305 35032 ft 452 kts 176°
2026-04-26 20:08 43.49775 -3.90709 35031 ft 452 kts 176°
2026-04-26 20:09 43.43498 -3.90471 35029 ft 451 kts 186°
2026-04-26 20:09 43.37294 -3.91389 35027 ft 452 kts 186°
2026-04-26 20:10 43.31039 -3.92320 35027 ft 452 kts 186°
2026-04-26 20:10 43.24779 -3.93255 35027 ft 452 kts 186°
2026-04-26 20:11 43.18520 -3.94174 35027 ft 452 kts 186°
2026-04-26 20:12 43.09108 -3.95554 35002 ft 454 kts 186°
2026-04-26 20:12 43.02802 -3.96482 35000 ft 456 kts 186°
2026-04-26 20:13 42.96489 -3.97410 35008 ft 456 kts 186°
2026-04-26 20:13 42.90176 -3.98334 35011 ft 457 kts 186°
2026-04-26 20:14 42.83894 -3.99245 35018 ft 457 kts 186°
2026-04-26 20:14 42.77563 -4.00164 35022 ft 457 kts 186°
2026-04-26 20:15 42.71240 -4.01088 35022 ft 457 kts 186°
2026-04-26 20:15 42.64910 -4.02008 35024 ft 457 kts 186°
2026-04-26 20:16 42.58581 -4.02921 35024 ft 457 kts 186°
2026-04-26 20:16 42.52253 -4.03831 35027 ft 457 kts 186°
2026-04-26 20:17 42.45927 -4.04737 35029 ft 457 kts 186°
2026-04-26 20:17 42.39601 -4.05644 35029 ft 457 kts 186°
2026-04-26 20:18 42.33281 -4.06550 35029 ft 457 kts 186°
2026-04-26 20:18 42.26962 -4.07459 35027 ft 457 kts 186°
2026-04-26 20:19 42.20680 -4.08362 35027 ft 457 kts 186°
2026-04-26 20:19 42.14352 -4.09264 35029 ft 457 kts 186°
2026-04-26 20:20 42.08026 -4.10163 35030 ft 457 kts 186°
2026-04-26 20:20 42.01708 -4.11063 35029 ft 457 kts 186°
2026-04-26 20:21 41.95374 -4.11833 35028 ft 457 kts 185°
2026-04-26 20:21 41.89038 -4.12504 35027 ft 457 kts 185°
2026-04-26 20:22 41.82702 -4.13197 35027 ft 457 kts 185°
2026-04-26 20:22 41.76362 -4.13918 35028 ft 457 kts 185°
2026-04-26 20:23 41.70030 -4.14649 35029 ft 457 kts 185°
2026-04-26 20:23 41.63735 -4.15372 35031 ft 457 kts 185°
2026-04-26 20:24 41.57396 -4.16086 35031 ft 457 kts 185°
2026-04-26 20:24 41.51058 -4.16791 35029 ft 457 kts 185°
2026-04-26 20:25 41.44719 -4.17503 35029 ft 457 kts 185°
2026-04-26 20:25 41.38379 -4.18219 35029 ft 457 kts 185°
2026-04-26 20:26 41.32082 -4.18934 35030 ft 457 kts 185°
2026-04-26 20:26 41.25739 -4.19638 35030 ft 457 kts 185°
2026-04-26 20:27 41.19399 -4.20336 35030 ft 457 kts 185°
2026-04-26 20:27 41.13063 -4.21041 35030 ft 457 kts 185°
2026-04-26 20:28 41.06771 -4.21750 35030 ft 457 kts 185°
2026-04-26 20:28 41.00437 -4.22450 35029 ft 457 kts 185°
2026-04-26 20:29 40.94099 -4.23157 35029 ft 457 kts 185°
2026-04-26 20:29 40.87760 -4.23859 35029 ft 457 kts 185°
2026-04-26 20:30 40.81416 -4.24545 35028 ft 457 kts 185°
2026-04-26 20:30 40.75070 -4.25243 35027 ft 458 kts 185°
2026-04-26 20:31 40.68721 -4.25947 35024 ft 458 kts 185°
2026-04-26 20:31 40.62360 -4.26642 35017 ft 459 kts 185°
2026-04-26 20:32 40.56033 -4.27328 35023 ft 459 kts 185°
2026-04-26 20:32 40.49650 -4.28032 35032 ft 459 kts 185°
2026-04-26 20:33 40.43290 -4.28730 35037 ft 458 kts 185°
2026-04-26 20:33 40.36936 -4.29430 35037 ft 457 kts 185°
2026-04-26 20:34 40.30600 -4.30123 35038 ft 457 kts 185°
2026-04-26 20:34 40.24268 -4.30795 35038 ft 456 kts 185°
2026-04-26 20:35 40.17952 -4.31474 35036 ft 455 kts 185°
2026-04-26 20:35 40.11637 -4.32166 35034 ft 455 kts 185°
2026-04-26 20:36 40.06385 -4.32736 35033 ft 455 kts 185°
2026-04-26 20:36 40.00080 -4.33416 35032 ft 455 kts 185°
2026-04-26 20:37 39.92769 -4.34424 35030 ft 454 kts 189°
2026-04-26 20:37 39.87543 -4.35586 35030 ft 454 kts 191°
2026-04-26 20:38 39.81370 -4.37086 35032 ft 454 kts 191°
2026-04-26 20:38 39.75145 -4.38497 35032 ft 454 kts 189°
2026-04-26 20:39 39.68904 -4.39809 35028 ft 454 kts 189°
2026-04-26 20:39 39.62657 -4.41112 35026 ft 455 kts 189°
2026-04-26 20:40 39.56406 -4.42439 35025 ft 455 kts 189°
2026-04-26 20:40 39.50154 -4.43768 35019 ft 456 kts 189°
2026-04-26 20:41 39.43893 -4.45106 35025 ft 456 kts 189°
2026-04-26 20:41 39.37626 -4.46440 35026 ft 456 kts 189°
2026-04-26 20:42 39.31359 -4.47758 35030 ft 456 kts 189°
2026-04-26 20:42 39.25141 -4.49120 35031 ft 456 kts 194°
2026-04-26 20:43 39.19302 -4.52171 35033 ft 454 kts 212°
2026-04-26 20:43 39.14031 -4.56672 35031 ft 454 kts 214°
2026-04-26 20:44 39.08753 -4.61166 35030 ft 454 kts 213°
2026-04-26 20:44 39.03478 -4.65633 35031 ft 454 kts 213°
2026-04-26 20:45 38.98202 -4.70105 35029 ft 454 kts 213°
2026-04-26 20:45 38.92934 -4.74573 35031 ft 454 kts 213°
2026-04-26 20:46 38.87696 -4.79011 35031 ft 454 kts 213°
2026-04-26 20:46 38.82421 -4.83462 35031 ft 454 kts 213°
2026-04-26 20:47 38.77137 -4.87910 35032 ft 454 kts 213°
2026-04-26 20:47 38.71901 -4.92314 34449 ft 444 kts 213°
2026-04-26 20:47 38.69332 -4.94470 34020 ft 439 kts 213°
2026-04-26 20:48 38.66779 -4.96611 33595 ft 434 kts 213°
2026-04-26 20:48 38.64266 -4.98718 33178 ft 429 kts 213°
2026-04-26 20:48 38.61815 -5.00774 32749 ft 424 kts 213°
2026-04-26 20:48 38.59359 -5.02829 32324 ft 420 kts 213°
2026-04-26 20:49 38.56927 -5.04862 31897 ft 415 kts 213°
2026-04-26 20:49 38.54526 -5.06870 31470 ft 410 kts 213°
2026-04-26 20:49 38.52154 -5.08854 31049 ft 406 kts 213°
2026-04-26 20:49 38.49896 -5.10984 30613 ft 401 kts 221°
2026-04-26 20:50 38.47799 -5.13314 30195 ft 397 kts 221°
2026-04-26 20:50 38.45724 -5.15611 29769 ft 393 kts 221°
2026-04-26 20:50 38.43664 -5.17882 29344 ft 390 kts 221°
2026-04-26 20:50 38.41620 -5.20129 28918 ft 386 kts 221°
2026-04-26 20:51 38.39589 -5.22362 28487 ft 383 kts 221°
2026-04-26 20:51 38.37604 -5.24548 28071 ft 380 kts 221°
2026-04-26 20:51 38.35613 -5.26744 27650 ft 376 kts 221°
2026-04-26 20:51 38.33638 -5.28920 27227 ft 373 kts 221°
2026-04-26 20:52 38.31682 -5.31071 26796 ft 370 kts 221°
2026-04-26 20:52 38.29734 -5.33205 26366 ft 367 kts 221°
2026-04-26 20:52 38.27804 -5.35317 25940 ft 364 kts 221°
2026-04-26 20:52 38.25890 -5.37407 25516 ft 361 kts 221°
2026-04-26 20:53 38.23992 -5.39481 25090 ft 358 kts 221°
2026-04-26 20:53 38.22114 -5.41536 24664 ft 355 kts 221°
2026-04-26 20:53 38.20256 -5.43574 24241 ft 352 kts 221°
2026-04-26 20:53 38.18408 -5.45601 23818 ft 349 kts 221°
2026-04-26 20:54 38.16578 -5.47606 23390 ft 346 kts 221°
2026-04-26 20:54 38.14758 -5.49595 22965 ft 344 kts 221°
2026-04-26 20:54 38.12947 -5.51569 22536 ft 341 kts 221°
2026-04-26 20:54 38.11152 -5.53521 22110 ft 339 kts 221°
2026-04-26 20:55 38.09367 -5.55462 21682 ft 337 kts 221°
2026-04-26 20:55 38.07595 -5.57389 21259 ft 334 kts 221°
2026-04-26 20:55 38.05833 -5.59308 20832 ft 332 kts 221°
2026-04-26 20:55 38.04087 -5.61209 20408 ft 330 kts 221°
2026-04-26 20:56 38.02348 -5.63101 19981 ft 328 kts 221°
2026-04-26 20:56 38.00622 -5.64974 19557 ft 326 kts 221°
2026-04-26 20:56 37.98902 -5.66841 19131 ft 324 kts 221°
2026-04-26 20:56 37.97213 -5.68676 18698 ft 322 kts 221°
2026-04-26 20:57 37.95516 -5.70521 18304 ft 319 kts 221°
2026-04-26 20:57 37.93827 -5.72354 17787 ft 321 kts 221°
2026-04-26 20:57 37.92116 -5.74200 17224 ft 323 kts 220°
2026-04-26 20:57 37.90401 -5.76051 16679 ft 325 kts 220°
2026-04-26 20:58 37.88679 -5.77907 16129 ft 326 kts 220°
2026-04-26 20:58 37.86946 -5.79774 15577 ft 327 kts 220°
2026-04-26 20:58 37.85214 -5.81643 15024 ft 328 kts 221°
2026-04-26 20:58 37.83479 -5.83520 14474 ft 328 kts 221°
2026-04-26 20:59 37.81742 -5.85397 13923 ft 328 kts 220°
2026-04-26 20:59 37.80003 -5.87270 13371 ft 328 kts 220°
2026-04-26 20:59 37.78263 -5.89144 12819 ft 328 kts 220°
2026-04-26 20:59 37.76530 -5.91009 12262 ft 325 kts 220°
2026-04-26 21:00 37.74839 -5.92828 11689 ft 312 kts 220°
2026-04-26 21:00 37.73226 -5.94559 11156 ft 298 kts 220°
2026-04-26 21:00 37.71678 -5.96218 10601 ft 286 kts 220°
2026-04-26 21:00 37.70173 -5.97836 10056 ft 286 kts 221°
2026-04-26 21:01 37.68646 -5.99482 9498 ft 291 kts 221°
2026-04-26 21:01 37.67097 -6.01149 8959 ft 294 kts 221°
2026-04-26 21:01 37.65578 -6.02900 8400 ft 297 kts 224°
2026-04-26 21:01 37.64100 -6.04740 7837 ft 300 kts 223°
2026-04-26 21:02 37.62531 -6.06481 7329 ft 300 kts 219°
2026-04-26 21:02 37.60899 -6.08056 6885 ft 299 kts 216°
2026-04-26 21:02 37.59155 -6.09528 6424 ft 297 kts 212°
2026-04-26 21:02 37.57391 -6.10803 5982 ft 295 kts 207°
2026-04-26 21:03 37.55537 -6.11901 5532 ft 294 kts 203°
2026-04-26 21:03 37.53640 -6.12844 5079 ft 292 kts 200°
2026-04-26 21:03 37.51740 -6.13642 4633 ft 280 kts 197°
2026-04-26 21:03 37.49915 -6.14270 4216 ft 264 kts 194°
2026-04-26 21:04 37.48166 -6.14741 3790 ft 251 kts 191°
2026-04-26 21:04 37.46476 -6.15067 3365 ft 240 kts 187°
2026-04-26 21:04 37.44846 -6.15257 2998 ft 234 kts 184°
2026-04-26 21:04 37.43264 -6.14977 2738 ft 229 kts 154°
2026-04-26 21:05 37.42105 -6.13687 2737 ft 221 kts 121°
2026-04-26 21:05 37.41689 -6.11946 2746 ft 201 kts 92°
2026-04-26 21:05 37.41695 -6.10237 2740 ft 187 kts 89°
2026-04-26 21:05 37.41706 -6.08658 2698 ft 176 kts 89°
2026-04-26 21:06 37.41715 -6.07148 2529 ft 170 kts 89°
2026-04-26 21:06 37.41723 -6.05696 2346 ft 160 kts 89°
2026-04-26 21:06 37.41729 -6.04332 2136 ft 153 kts 89°
2026-04-26 21:06 37.41736 -6.03022 1937 ft 151 kts 89°
2026-04-26 21:07 37.41742 -6.01710 1742 ft 149 kts 89°
2026-04-26 21:07 37.41748 -6.00404 1543 ft 149 kts 89°
2026-04-26 21:07 37.41754 -5.99104 1346 ft 148 kts 89°
2026-04-26 21:07 37.41760 -5.97809 1150 ft 148 kts 89°
2026-04-26 21:08 37.41766 -5.96516 953 ft 148 kts 89°
2026-04-26 21:08 37.41771 -5.95229 762 ft 147 kts 89°
2026-04-26 21:08 37.41781 -5.93944 577 ft 147 kts 89°
2026-04-26 21:08 37.41787 -5.92664 370 ft 146 kts 90°
2026-04-26 21:09 37.41787 -5.91387 201 ft 146 kts 89°
2026-04-26 21:09 37.41795 -5.90138 99 ft 133 kts 90°
2026-04-26 21:09 37.41798 -5.89324 100 ft 50 kts 89°
2026-04-26 21:09 37.41799 -5.88976 103 ft 34 kts 89°
2026-04-26 21:10 37.41814 -5.88801 103 ft 14 kts 49°
2026-04-26 21:10 37.41911 -5.88761 103 ft 16 kts 11°
2026-04-26 21:10 37.41983 -5.88823 102 ft 16 kts 281°
2026-04-26 21:10 37.41987 -5.88967 101 ft 18 kts 268°
2026-04-26 21:11 37.41986 -5.89126 101 ft 16 kts 277°
2026-04-26 21:11 37.41988 -5.89150 100 ft 0 kts 273°
2026-04-26 21:11 37.41988 -5.89160 100 ft 3 kts 270°
2026-04-26 21:11 37.41987 -5.89237 100 ft 14 kts 269°
2026-04-26 21:12 37.42001 -5.89365 101 ft 16 kts 297°
2026-04-26 21:12 37.42061 -5.89461 98 ft 9 kts 312°
2026-04-26 21:12 37.42111 -5.89518 97 ft 11 kts 319°
2026-04-26 21:12 37.42171 -5.89585 99 ft 11 kts 312°
2026-04-26 21:13 37.42213 -5.89648 97 ft 1 kts 312°
2026-04-26 21:13 37.42224 -5.89650 95 ft 1 kts 21°
2026-04-26 21:13 37.42226 -5.89632 95 ft 5 kts 79°
2026-04-26 21:13 37.42232 -5.89581 96 ft 7 kts 83°
2026-04-26 21:14 37.42234 -5.89565 94 ft 0 kts 83°